CW7218 Weather Reports


Display with metric or nautical units.
time (UTC)temp
F
wind
direction
speed
MPH
gust
MPH
rain 1hr
in
rain 24hr
in
rain mn
in
humidity
%
barometer
mb
20260901172028 79 180 5.0 9.0 0.00 0.00 0.00 60 1020.7
20260901171029 79 180 5.0 10.0 0.00 0.00 0.00 59 1020.7
20260901170028 79 180 5.0 10.0 0.00 0.00 0.00 59 1020.9
20260901165028 80 203 7.0 12.0 0.00 0.00 0.00 58 1021.0
20260901164029 80 180 6.0 12.0 0.00 0.00 0.00 58 1021.0
20260901163028 80 180 6.0 11.0 0.00 0.00 0.00 57 1021.0
20260901162028 80 203 6.0 12.0 0.00 0.00 0.00 57 1020.9
20260901161028 80 180 6.0 13.0 0.00 0.00 0.00 58 1020.9
20260901160029 80 135 6.0 15.0 0.00 0.00 0.00 57 1021.0
20260901155048 81 180 7.0 12.0 0.00 0.00 0.00 56 1021.0
20260901154048 82 180 7.0 12.0 0.00 0.00 0.00 55 1021.1
20260901153048 82 158 6.0 12.0 0.00 0.00 0.00 54 1021.1
20260901152028 82 180 6.0 11.0 0.00 0.00 0.00 54 1020.9
20260901151028 82 158 6.0 12.0 0.00 0.00 0.00 54 1021.0
20260901150028 82 180 5.0 10.0 0.00 0.00 0.00 54 1021.0
20260901145028 83 158 4.0 9.0 0.00 0.00 0.00 54 1021.1
20260901144108 82 203 6.0 15.0 0.00 0.00 0.00 55 1021.1
20260901143028 82 180 4.0 8.0 0.00 0.00 0.00 53 1021.2
20260901142028 82 158 6.0 12.0 0.00 0.00 0.00 53 1021.4
20260901141029 82 180 6.0 14.0 0.00 0.00 0.00 54 1021.4
20260901140028 81 158 8.0 13.0 0.00 0.00 0.00 55 1021.5
20260901135028 81 180 8.0 15.0 0.00 0.00 0.00 54 1021.6
20260901134028 80 180 8.0 18.0 0.00 0.00 0.00 55 1021.6
20260901133028 81 180 7.0 14.0 0.00 0.00 0.00 54 1021.8
20260901132028 81 180 8.0 16.0 0.00 0.00 0.00 55 1021.8
20260901131028 81 180 7.0 15.0 0.00 0.00 0.00 55 1022.0
20260901130028 81 180 7.0 12.0 0.00 0.00 0.00 55 1022.0
20260901125028 81 180 9.0 17.0 0.00 0.00 0.00 55 1022.1
20260901124048 80 180 10.0 17.0 0.00 0.00 0.00 57 1022.1
20260901123028 80 180 9.0 16.0 0.00 0.00 0.00 57 1022.2
20260901122028 80 180 9.0 18.0 0.00 0.00 0.00 57 1022.3
20260901121048 80 180 7.0 14.0 0.00 0.00 0.00 57 1022.3
20260901120027 81 158 6.0 14.0 0.00 0.00 0.00 56 1022.3
20260901115028 80 180 7.0 16.0 0.00 0.00 0.00 58 1022.4
20260901114028 80 158 7.0 13.0 0.00 0.00 0.00 59 1022.5
20260901113028 80 180 8.0 13.0 0.00 0.00 0.00 61 1022.5
20260901112027 79 180 8.0 16.0 0.00 0.00 0.00 62 1022.6
20260901111027 79 180 8.0 15.0 0.00 0.00 0.00 62 1022.6
20260901110027 78 180 8.0 16.0 0.00 0.00 0.00 63 1022.5
20260901105047 78 180 7.0 14.0 0.00 0.00 0.00 63 1022.6
20260901104028 77 158 6.0 14.0 0.00 0.00 0.00 65 1022.6
20260901103047 77 158 6.0 12.0 0.00 0.00 0.00 67 1022.7
20260901102027 77 203 5.0 13.0 0.00 0.00 0.00 66 1022.6
20260901101027 78 158 3.0 9.0 0.00 0.00 0.00 65 1022.6
20260901100027 77 45 2.0 5.0 0.00 0.00 0.00 66 1022.5
20260901095027 76 180 3.0 6.0 0.00 0.00 0.00 67 1022.3
20260901094027 77 113 2.0 7.0 0.00 0.00 0.00 66 1022.5
20260901093027 75 158 2.0 4.0 0.00 0.00 0.00 69 1022.3
20260901092027 75 158 4.0 6.0 0.00 0.00 0.00 69 1022.4
20260901091027 76 158 2.0 6.0 0.00 0.00 0.00 69 1022.6
20260901090027 75 135 2.0 5.0 0.00 0.00 0.00 69 1022.5
20260901085027 75 158 2.0 5.0 0.00 0.00 0.00 72 1022.5
20260901084047 74 68 2.0 3.0 0.00 0.00 0.00 73 1022.6
20260901083047 73 90 2.0 5.0 0.00 0.00 0.00 76 1022.6
20260901082027 71 68 2.0 5.0 0.00 0.00 0.00 79 1022.5
20260901081047 70 23 2.0 4.0 0.00 0.00 0.00 82 1022.3
20260901080027 69 90 1.0 3.0 0.00 0.00 0.00 83 1022.3
20260901075047 69 90 1.0 3.0 0.00 0.00 0.00 84 1022.4
20260901074027 69 90 2.0 3.0 0.00 0.00 0.00 83 1022.4
20260901073027 69 90 1.0 3.0 0.00 0.00 0.00 83 1022.4
20260901072027 68 90 1.0 3.0 0.00 0.00 0.00 83 1022.4
20260901071027 68 90 3.0 5.0 0.00 0.00 0.00 84 1022.3
20260901070027 68 90 2.0 5.0 0.00 0.00 0.00 86 1022.4
20260901065027 68 90 2.0 6.0 0.00 0.00 0.00 87 1022.3
20260901064047 67 90 3.0 6.0 0.00 0.00 0.00 87 1022.3
20260901063027 67 90 3.0 6.0 0.00 0.00 0.00 87 1022.2
20260901062027 68 90 1.0 4.0 0.00 0.00 0.00 88 1022.4
20260901061026 68 90 1.0 3.0 0.00 0.00 0.00 89 1022.3
20260901060147 68 0.0 0.0 0.00 0.00 0.00 89 1022.4
20260901055026 68 0.0 0.0 0.00 0.00 0.00 89 1022.3
20260901054026 68 0.0 0.0 0.00 0.00 0.00 89 1022.2
20260901053047 68 0.0 0.0 0.00 0.00 0.00 89 1022.3
20260901052027 68 0.0 0.0 0.00 0.00 0.00 88 1022.3
20260901051027 68 0.0 3.0 0.00 0.00 0.00 88 1022.2
20260901050027 68 0.0 3.0 0.00 0.00 0.00 88 1022.3
20260901045026 68 180 1.0 3.0 0.00 0.00 0.00 88 1022.4
20260901044046 68 203 2.0 5.0 0.00 0.00 0.00 87 1022.4
20260901043026 68 0.0 0.0 0.00 0.00 0.00 86 1022.4
20260901042028 68 0.0 0.0 0.00 0.00 0.00 85 1022.4
20260901041028 69 0.0 0.0 0.00 0.00 0.00 85 1022.4
20260901040028 69 0.0 2.0 0.00 0.00 0.00 85 1022.8
20260901035028 68 0.0 2.0 0.00 0.00 0.00 85 1022.9
20260901034048 68 68 1.0 3.0 0.00 0.00 0.00 85 1023.0
20260901033048 69 113 1.0 3.0 0.00 0.00 0.00 84 1023.3
20260901032028 69 135 1.0 4.0 0.00 0.00 0.00 84 1023.3
20260901031028 69 113 1.0 4.0 0.00 0.00 0.00 83 1023.3
20260901030028 69 0.0 2.0 0.00 0.00 0.00 83 1023.3
20260901025028 69 90 1.0 3.0 0.00 0.00 0.00 83 1023.5
20260901024028 69 90 1.0 3.0 0.00 0.00 0.00 82 1023.7
20260901023028 69 135 1.0 3.0 0.00 0.00 0.00 82 1023.8
20260901022028 69 158 1.0 3.0 0.00 0.00 0.00 82 1023.8
20260901021028 69 158 1.0 3.0 0.00 0.00 0.00 81 1023.8
20260901020048 69 158 1.0 3.0 0.00 0.00 0.00 81 1023.6
20260901015028 69 135 1.0 3.0 0.00 0.00 0.00 81 1023.7
20260901014028 69 158 1.0 3.0 0.00 0.00 0.00 81 1023.8
20260901013028 69 158 1.0 4.0 0.00 0.00 0.00 80 1023.7
20260901012048 69 158 2.0 4.0 0.00 0.00 0.00 80 1023.7
20260901011028 70 158 2.0 4.0 0.00 0.00 0.00 80 1023.8
20260901010028 69 158 2.0 3.0 0.00 0.00 0.00 80 1023.6
20260901005028 69 203 3.0 5.0 0.00 0.00 0.00 80 1023.7
20260901004028 70 203 3.0 5.0 0.00 0.00 0.00 79 1023.9
20260901003028 70 203 4.0 6.0 0.00 0.00 0.00 79 1023.9
20260901002028 70 203 2.0 4.0 0.00 0.00 0.00 79 1023.9
20260901001028 70 180 2.0 4.0 0.00 0.00 0.00 79 1023.9
20260901000048 70 180 2.0 3.0 0.00 0.00 0.00 79 1023.8
20260831235029 70 180 1.0 3.0 0.00 0.00 0.00 78 1023.7
20260831234028 70 158 2.0 4.0 0.00 0.00 0.00 78 1023.6
20260831233029 71 113 1.0 3.0 0.00 0.00 0.00 77 1023.7
20260831232029 71 0.0 3.0 0.00 0.00 0.00 77 1023.6
20260831231108 71 0.0 3.0 0.00 0.00 0.00 77 1023.6
20260831230029 71 158 1.0 3.0 0.00 0.00 0.00 76 1023.7
20260831225028 71 135 1.0 4.0 0.00 0.00 0.00 77 1023.8
20260831224028 71 180 1.0 3.0 0.00 0.00 0.00 77 1023.7
20260831223028 71 203 1.0 4.0 0.00 0.00 0.00 77 1023.7
20260831222028 71 180 2.0 4.0 0.00 0.00 0.00 77 1023.7
20260831221028 71 180 2.0 4.0 0.00 0.00 0.00 77 1023.6
20260831220028 71 180 2.0 5.0 0.00 0.00 0.00 76 1023.6
20260831215028 71 135 1.0 4.0 0.00 0.00 0.00 75 1023.6
20260831214028 72 135 1.0 4.0 0.00 0.00 0.00 75 1023.5
20260831213028 72 135 3.0 7.0 0.00 0.00 0.00 75 1023.3
20260831212048 72 135 3.0 6.0 0.00 0.00 0.00 76 1023.3
20260831211028 72 180 4.0 7.0 0.00 0.00 0.00 77 1023.3
20260831210028 72 180 4.0 9.0 0.00 0.00 0.00 78 1023.1
20260831205048 72 180 4.0 8.0 0.00 0.00 0.00 79 1023.1
20260831204028 72 180 5.0 10.0 0.00 0.00 0.00 79 1023.0
20260831203028 72 203 7.0 11.0 0.00 0.00 0.00 79 1022.7
20260831202028 72 203 8.0 11.0 0.00 0.00 0.00 79 1022.5
20260831201028 73 203 6.0 12.0 0.00 0.00 0.00 78 1022.6
20260831200028 73 203 7.0 13.0 0.00 0.00 0.00 78 1022.2
20260831195028 73 180 7.0 13.0 0.00 0.00 0.00 78 1022.1
20260831194048 74 180 6.0 13.0 0.00 0.00 0.00 77 1022.0
20260831193028 74 203 7.0 12.0 0.00 0.00 0.00 76 1021.6
20260831192028 74 180 6.0 11.0 0.00 0.00 0.00 75 1021.5
20260831191028 74 203 7.0 12.0 0.00 0.00 0.00 75 1021.3
20260831190028 75 203 8.0 11.0 0.00 0.00 0.00 74 1020.9
20260831185028 75 180 5.0 11.0 0.00 0.00 0.00 74 1020.9
20260831184028 75 180 4.0 7.0 0.00 0.00 0.00 73 1020.8
20260831183028 75 180 5.0 8.0 0.00 0.00 0.00 73 1020.7
20260831182027 76 180 5.0 11.0 0.00 0.00 0.00 72 1020.7
20260831181027 76 158 4.0 8.0 0.00 0.00 0.00 71 1020.7
20260831180028 77 180 5.0 8.0 0.00 0.00 0.00 71 1020.5
20260831175047 77 180 7.0 13.0 0.00 0.00 0.00 70 1020.5
20260831174027 77 180 6.0 13.0 0.00 0.00 0.00 69 1020.4
20260831173027 78 180 8.0 14.0 0.00 0.00 0.00 68 1020.4